Location: Gibsondale
(40.9931°N, 80.2478°W)
Time: 09:37:04
(UTC+00:00)

GPS 2-04 Rocket1 - Pass Details

Date: 29 October 2020
Orbit: 418 x 546 km, 35.6° (Epoch: 26 November)

Event Time Altitude Azimuth Distance (km) Brightness Sun altitude
Rises 23:32:11 0° 238° (WSW) 2,606 7.5 -14.2°
Reaches altitude 10° 23:34:34 10° 227° (SW) 1,743 6.2 -14.6°
Maximum altitude 23:38:05 30° 166° (SSE) 974 4.0 -15.3°
Enters shadow 23:39:48 22° 125° (SE) 1,209 4.1 -15.6°
